Time,TemperatureF,DewpointF,PressureIn,WindDirection,WindDirectionDegrees,WindSpeedMPH,WindSpeedGustMPH,Humidity,HourlyPrecipIn,Conditions,Clouds,dailyrainin,SolarRadiationWatts/m^2,SoftwareType,DateUTC
2013-09-12 00:05:00,71.2,-99.9,30.00,SW,217,4.0,6.0,0,0.00,,,0.00,0,Wunderground v.1.15,2013-09-12 04:05:00,
2013-09-12 00:10:00,71.2,-99.9,29.99,WSW,237,5.0,5.0,0,0.00,,,0.00,0,Wunderground v.1.15,2013-09-12 04:10:00,
2013-09-12 00:15:00,71.2,-99.9,29.99,SSW,198,5.0,5.0,0,0.00,,,0.00,0,Wunderground v.1.15,2013-09-12 04:15:00,
2013-09-12 00:25:00,71.1,-99.9,29.99,NNW,331,4.0,4.0,0,0.00,,,0.00,0,Wunderground v.1.15,2013-09-12 04:25:00,
2013-09-12 00:30:00,71.1,-99.9,29.99,SW,234,4.0,7.0,0,0.00,,,0.00,0,Wunderground v.1.15,2013-09-12 04:30:00,
2013-09-12 00:40:00,71.0,-99.9,29.99,SW,229,3.0,3.0,0,0.00,,,0.00,0,Wunderground v.1.15,2013-09-12 04:40:00,
2013-09-12 00:50:00,70.8,-99.9,29.99,West,263,1.0,4.0,0,0.00,,,0.00,0,Wunderground v.1.15,2013-09-12 04:50:00,
2013-09-12 01:00:00,70.9,-99.9,29.98,SSW,212,4.0,5.0,0,0.00,,,0.00,0,Wunderground v.1.15,2013-09-12 05:00:00,
2013-09-12 01:10:00,70.9,-99.9,29.97,SW,217,4.0,4.0,0,0.00,,,0.00,0,Wunderground v.1.15,2013-09-12 05:10:00,
2013-09-12 01:15:00,70.9,-99.9,29.98,WSW,250,3.0,4.0,0,0.00,,,0.00,0,Wunderground v.1.15,2013-09-12 05:15:00,
2013-09-12 01:25:00,71.0,-99.9,29.97,WSW,242,1.0,4.0,0,0.00,,,0.00,0,Wunderground v.1.15,2013-09-12 05:25:00,
2013-09-12 01:30:00,71.1,-99.9,29.97,SSW,201,3.0,4.0,0,0.00,,,0.00,0,Wunderground v.1.15,2013-09-12 05:30:00,
2013-09-12 01:35:00,71.2,-99.9,29.97,SSW,205,4.0,4.0,0,0.00,,,0.00,0,Wunderground v.1.15,2013-09-12 05:35:00,
2013-09-12 01:40:00,71.1,-99.9,29.96,SSW,212,4.0,4.0,0,0.00,,,0.00,0,Wunderground v.1.15,2013-09-12 05:40:00,
2013-09-12 01:50:00,71.0,-99.9,29.96,SSW,202,4.0,5.0,0,0.00,,,0.00,0,Wunderground v.1.15,2013-09-12 05:50:00,
2013-09-12 02:00:00,70.8,-99.9,29.96,SSW,203,5.0,5.0,0,0.00,,,0.00,0,Wunderground v.1.15,2013-09-12 06:00:00,
2013-09-12 02:10:00,70.6,-99.9,29.96,SSW,205,4.0,5.0,0,0.00,,,0.00,0,Wunderground v.1.15,2013-09-12 06:10:00,
2013-09-12 02:20:00,70.6,-99.9,29.95,SSW,207,4.0,4.0,0,0.00,,,0.00,0,Wunderground v.1.15,2013-09-12 06:20:00,
2013-09-12 02:30:00,70.5,-99.9,29.95,SW,220,4.0,4.0,0,0.00,,,0.00,0,Wunderground v.1.15,2013-09-12 06:30:00,
2013-09-12 02:40:00,70.4,-99.9,29.95,SSW,204,4.0,4.0,0,0.00,,,0.00,0,Wunderground v.1.15,2013-09-12 06:40:00,
2013-09-12 02:45:00,70.4,-99.9,29.95,SW,228,4.0,5.0,0,0.00,,,0.00,0,Wunderground v.1.15,2013-09-12 06:45:00,
2013-09-12 02:55:00,70.4,-99.9,29.95,SW,214,3.0,4.0,0,0.00,,,0.00,0,Wunderground v.1.15,2013-09-12 06:55:00,
2013-09-12 03:00:00,70.4,-99.9,29.95,SSW,211,4.0,4.0,0,0.00,,,0.00,0,Wunderground v.1.15,2013-09-12 07:00:00,
2013-09-12 03:05:00,70.4,-99.9,29.95,SSW,207,4.0,4.0,0,0.00,,,0.00,0,Wunderground v.1.15,2013-09-12 07:05:00,
2013-09-12 03:10:00,70.3,-99.9,29.95,SSW,207,4.0,7.0,0,0.00,,,0.00,0,Wunderground v.1.15,2013-09-12 07:10:00,
2013-09-12 03:20:00,70.3,-99.9,29.95,SSW,213,4.0,4.0,0,0.00,,,0.00,0,Wunderground v.1.15,2013-09-12 07:20:00,
2013-09-12 03:25:00,70.2,-99.9,29.95,SW,216,5.0,5.0,0,0.00,,,0.00,0,Wunderground v.1.15,2013-09-12 07:25:00,
2013-09-12 03:35:00,70.2,-99.9,29.95,SW,219,4.0,6.0,0,0.00,,,0.00,0,Wunderground v.1.15,2013-09-12 07:35:00,
2013-09-12 03:45:00,70.3,-99.9,29.95,SW,229,5.0,8.0,0,0.00,,,0.00,0,Wunderground v.1.15,2013-09-12 07:45:00,
2013-09-12 03:55:00,70.4,-99.9,29.95,SW,230,6.0,6.0,0,0.00,,,0.00,0,Wunderground v.1.15,2013-09-12 07:55:00,
2013-09-12 04:05:00,70.4,-99.9,29.95,SW,228,6.0,6.0,0,0.00,,,0.00,0,Wunderground v.1.15,2013-09-12 08:05:00,
2013-09-12 04:15:00,70.3,-99.9,29.95,SW,232,4.0,5.0,0,0.00,,,0.00,0,Wunderground v.1.15,2013-09-12 08:15:00,
2013-09-12 04:25:00,70.3,-99.9,29.94,SSW,203,5.0,6.0,0,0.00,,,0.00,0,Wunderground v.1.15,2013-09-12 08:25:00,
2013-09-12 04:35:00,70.3,-99.9,29.95,WSW,252,3.0,7.0,0,0.00,,,0.00,0,Wunderground v.1.15,2013-09-12 08:35:00,
2013-09-12 04:45:00,70.3,-99.9,29.95,SSW,209,3.0,5.0,0,0.00,,,0.00,0,Wunderground v.1.15,2013-09-12 08:45:00,
2013-09-12 04:50:00,70.4,-99.9,29.94,SSW,207,3.0,6.0,0,0.00,,,0.00,0,Wunderground v.1.15,2013-09-12 08:50:00,
2013-09-12 05:00:00,70.4,-99.9,29.95,SSW,207,5.0,5.0,0,0.00,,,0.00,0,Wunderground v.1.15,2013-09-12 09:00:00,
2013-09-12 05:05:00,70.3,-99.9,29.94,SSW,203,5.0,5.0,0,0.00,,,0.00,0,Wunderground v.1.15,2013-09-12 09:05:00,
2013-09-12 05:15:00,70.2,-99.9,29.94,SSW,195,4.0,6.0,0,0.00,,,0.00,0,Wunderground v.1.15,2013-09-12 09:15:00,
2013-09-12 05:20:00,70.2,-99.9,29.95,SW,217,4.0,4.0,0,0.00,,,0.00,0,Wunderground v.1.15,2013-09-12 09:20:00,
2013-09-12 05:30:00,70.3,-99.9,29.94,SSW,212,5.0,6.0,0,0.00,,,0.00,0,Wunderground v.1.15,2013-09-12 09:30:00,
2013-09-12 05:35:00,70.3,-99.9,29.94,SW,217,5.0,6.0,0,0.00,,,0.00,0,Wunderground v.1.15,2013-09-12 09:35:00,
2013-09-12 05:45:00,70.2,-99.9,29.94,SW,220,4.0,6.0,0,0.00,,,0.00,0,Wunderground v.1.15,2013-09-12 09:45:00,
2013-09-12 05:55:00,70.2,-99.9,29.94,SW,219,5.0,5.0,0,0.00,,,0.00,0,Wunderground v.1.15,2013-09-12 09:55:00,
2013-09-12 06:05:00,70.3,-99.9,29.94,SSW,207,4.0,5.0,0,0.00,,,0.00,0,Wunderground v.1.15,2013-09-12 10:05:00,
2013-09-12 06:15:00,70.4,-99.9,29.94,SW,221,6.0,7.0,0,0.00,,,0.00,0,Wunderground v.1.15,2013-09-12 10:15:00,
2013-09-12 06:25:00,70.4,-99.9,29.94,SSW,200,6.0,8.0,0,0.00,,,0.00,0,Wunderground v.1.15,2013-09-12 10:25:00,
2013-09-12 06:30:00,70.4,-99.9,29.94,SW,229,7.0,11.0,0,0.00,,,0.00,5,Wunderground v.1.15,2013-09-12 10:30:00,
2013-09-12 06:40:00,70.4,-99.9,29.94,SW,221,6.0,7.0,0,0.00,,,0.00,14,Wunderground v.1.15,2013-09-12 10:40:00,
2013-09-12 06:50:00,70.4,-99.9,29.94,SSW,213,6.0,6.0,0,0.00,,,0.00,25,Wunderground v.1.15,2013-09-12 10:50:00,
2013-09-12 06:55:00,70.4,-99.9,29.94,SW,236,5.0,6.0,0,0.00,,,0.00,32,Wunderground v.1.15,2013-09-12 10:55:00,
2013-09-12 07:00:00,70.4,-99.9,29.94,SW,219,5.0,5.0,0,0.00,,,0.00,39,Wunderground v.1.15,2013-09-12 11:00:00,
2013-09-12 07:10:00,70.4,-99.9,29.94,WSW,241,6.0,6.0,0,0.00,,,0.00,58,Wunderground v.1.15,2013-09-12 11:10:00,
2013-09-12 07:20:00,70.4,-99.9,29.94,SW,221,5.0,5.0,0,0.00,,,0.00,79,Wunderground v.1.15,2013-09-12 11:20:00,
2013-09-12 07:25:00,70.4,-99.9,29.94,WSW,238,6.0,6.0,0,0.00,,,0.00,91,Wunderground v.1.15,2013-09-12 11:25:00,
2013-09-12 07:30:00,70.6,-99.9,29.94,SW,223,7.0,8.0,0,0.00,,,0.00,105,Wunderground v.1.15,2013-09-12 11:30:00,
2013-09-12 07:40:00,70.7,-99.9,29.94,SW,234,6.0,6.0,0,0.00,,,0.00,139,Wunderground v.1.15,2013-09-12 11:40:00,
2013-09-12 07:45:00,70.9,-99.9,29.94,SW,215,5.0,6.0,0,0.00,,,0.00,153,Wunderground v.1.15,2013-09-12 11:45:00,
2013-09-12 07:55:00,71.1,-99.9,29.93,WNW,292,6.0,6.0,0,0.00,,,0.00,181,Wunderground v.1.15,2013-09-12 11:55:00,
2013-09-12 08:00:00,71.2,-99.9,29.93,West,260,6.0,8.0,0,0.00,,,0.00,193,Wunderground v.1.15,2013-09-12 12:00:00,
2013-09-12 08:10:00,71.4,-99.9,29.93,WSW,239,7.0,7.0,0,0.00,,,0.00,220,Wunderground v.1.15,2013-09-12 12:10:00,
2013-09-12 08:15:00,71.5,-99.9,29.93,WSW,238,7.0,7.0,0,0.00,,,0.00,241,Wunderground v.1.15,2013-09-12 12:15:00,
2013-09-12 08:20:00,71.7,-99.9,29.93,SSW,213,6.0,8.0,0,0.00,,,0.00,237,Wunderground v.1.15,2013-09-12 12:20:00,
2013-09-12 08:30:00,71.9,-99.9,29.92,SW,221,6.0,7.0,0,0.00,,,0.00,290,Wunderground v.1.15,2013-09-12 12:30:00,
2013-09-12 08:35:00,71.9,-99.9,29.93,SSW,200,7.0,8.0,0,0.00,,,0.00,311,Wunderground v.1.15,2013-09-12 12:35:00,
2013-09-12 08:45:00,72.2,-99.9,29.92,WSW,238,6.0,8.0,0,0.00,,,0.00,366,Wunderground v.1.15,2013-09-12 12:45:00,
2013-09-12 08:50:00,72.3,-99.9,29.92,SW,225,6.0,6.0,0,0.00,,,0.00,387,Wunderground v.1.15,2013-09-12 12:50:00,
2013-09-12 09:00:00,72.7,-99.9,29.92,SW,226,6.0,10.0,0,0.00,,,0.00,255,Wunderground v.1.15,2013-09-12 13:00:00,
2013-09-12 09:10:00,72.8,-99.9,29.92,SW,225,6.0,6.0,0,0.00,,,0.00,244,Wunderground v.1.15,2013-09-12 13:10:00,
2013-09-12 09:20:00,72.6,-99.9,29.92,SW,231,8.0,10.0,0,0.00,,,0.00,246,Wunderground v.1.15,2013-09-12 13:20:00,
2013-09-12 09:30:00,72.6,-99.9,29.92,South,190,6.0,6.0,0,0.00,,,0.00,183,Wunderground v.1.15,2013-09-12 13:30:00,
2013-09-12 09:35:00,72.6,-99.9,29.92,SSW,204,7.0,7.0,0,0.00,,,0.00,192,Wunderground v.1.15,2013-09-12 13:35:00,
2013-09-12 09:45:00,72.6,-99.9,29.92,SSW,208,7.0,12.0,0,0.00,,,0.00,281,Wunderground v.1.15,2013-09-12 13:45:00,
2013-09-12 09:55:00,72.8,-99.9,29.92,WSW,247,8.0,8.0,0,0.00,,,0.00,330,Wunderground v.1.15,2013-09-12 13:55:00,
2013-09-12 10:05:00,72.9,-99.9,29.92,SW,231,9.0,9.0,0,0.00,,,0.00,97,Wunderground v.1.15,2013-09-12 14:05:00,
2013-09-12 10:15:00,72.8,-99.9,29.91,SW,230,8.0,10.0,0,0.00,,,0.00,127,Wunderground v.1.15,2013-09-12 14:15:00,
2013-09-12 10:25:00,72.6,-99.9,29.91,SSW,213,7.0,8.0,0,0.00,,,0.00,132,Wunderground v.1.15,2013-09-12 14:25:00,
2013-09-12 10:35:00,72.5,-99.9,29.91,SW,230,7.0,7.0,0,0.00,,,0.00,304,Wunderground v.1.15,2013-09-12 14:35:00,
2013-09-12 10:45:00,73.0,-99.9,29.90,SW,225,8.0,14.0,0,0.00,,,0.00,422,Wunderground v.1.15,2013-09-12 14:45:00,
2013-09-12 10:55:00,73.6,-99.9,29.90,SSW,210,9.0,14.0,0,0.00,,,0.00,355,Wunderground v.1.15,2013-09-12 14:55:00,
2013-09-12 11:00:00,73.8,-99.9,29.90,West,261,9.0,13.0,0,0.00,,,0.00,587,Wunderground v.1.15,2013-09-12 15:00:00,
2013-09-12 11:10:00,74.1,-99.9,29.90,SW,218,9.0,9.0,0,0.00,,,0.00,306,Wunderground v.1.15,2013-09-12 15:10:00,
2013-09-12 11:15:00,74.3,-99.9,29.90,WSW,249,9.0,9.0,0,0.00,,,0.00,533,Wunderground v.1.15,2013-09-12 15:15:00,
2013-09-12 11:25:00,74.6,-99.9,29.90,SW,220,8.0,12.0,0,0.00,,,0.00,719,Wunderground v.1.15,2013-09-12 15:25:00,
2013-09-12 11:35:00,75.1,-99.9,29.89,SW,214,8.0,15.0,0,0.00,,,0.00,798,Wunderground v.1.15,2013-09-12 15:35:00,
2013-09-12 11:40:00,75.0,-5.3,29.89,WSW,244,9.0,9.0,4,0.00,,,0.00,744,Wunderground v.1.15,2013-09-12 15:40:00,
2013-09-12 11:50:00,74.7,-0.8,29.89,SW,223,10.0,14.0,5,0.00,,,0.00,643,Wunderground v.1.15,2013-09-12 15:50:00,
2013-09-12 12:00:00,74.4,-32.6,29.88,WSW,238,10.0,11.0,1,0.00,,,0.00,645,Wunderground v.1.15,2013-09-12 16:00:00,
2013-09-12 12:10:00,75.2,-99.9,29.88,South,190,8.0,14.0,0,0.00,,,0.00,795,Wunderground v.1.15,2013-09-12 16:10:00,
2013-09-12 12:15:00,75.9,-10.6,29.88,SSW,207,7.0,14.0,3,0.00,,,0.00,803,Wunderground v.1.15,2013-09-12 16:15:00,
2013-09-12 12:25:00,76.4,26.9,29.87,SSW,209,11.0,14.0,16,0.00,,,0.00,830,Wunderground v.1.15,2013-09-12 16:25:00,
2013-09-12 12:30:00,76.4,28.3,29.87,SSW,196,13.0,16.0,17,0.00,,,0.00,812,Wunderground v.1.15,2013-09-12 16:30:00,
2013-09-12 12:40:00,76.2,32.2,29.87,SSW,201,14.0,16.0,20,0.00,,,0.00,759,Wunderground v.1.15,2013-09-12 16:40:00,
2013-09-12 12:50:00,76.2,29.6,29.86,SSW,194,13.0,13.0,18,0.00,,,0.00,617,Wunderground v.1.15,2013-09-12 16:50:00,
2013-09-12 12:55:00,76.4,32.3,29.86,South,170,12.0,13.0,20,0.00,,,0.00,701,Wunderground v.1.15,2013-09-12 16:55:00,
2013-09-12 13:00:00,76.5,32.4,29.86,SSW,205,11.0,11.0,20,0.00,,,0.00,861,Wunderground v.1.15,2013-09-12 17:00:00,
2013-09-12 13:05:00,76.7,36.1,29.86,WSW,255,10.0,11.0,23,0.00,,,0.00,659,Wunderground v.1.15,2013-09-12 17:05:00,
2013-09-12 13:15:00,75.7,39.3,29.86,SW,217,11.0,15.0,27,0.00,,,0.00,601,Wunderground v.1.15,2013-09-12 17:15:00,
2013-09-12 13:25:00,75.1,20.9,29.86,West,265,10.0,11.0,13,0.00,,,0.00,552,Wunderground v.1.15,2013-09-12 17:25:00,
2013-09-12 13:35:00,76.0,19.7,29.86,SSW,207,7.0,12.0,12,0.00,,,0.00,584,Wunderground v.1.15,2013-09-12 17:35:00,
2013-09-12 13:40:00,76.6,28.5,29.86,SSW,213,8.0,11.0,17,0.00,,,0.00,559,Wunderground v.1.15,2013-09-12 17:40:00,
2013-09-12 13:50:00,76.5,37.0,29.85,SSW,204,9.0,12.0,24,0.00,,,0.00,527,Wunderground v.1.15,2013-09-12 17:50:00,
2013-09-12 14:00:00,75.3,26.0,29.85,SSW,211,10.0,11.0,16,0.00,,,0.00,478,Wunderground v.1.15,2013-09-12 18:00:00,
2013-09-12 14:05:00,75.1,19.0,29.85,SW,214,10.0,11.0,12,0.00,,,0.00,468,Wunderground v.1.15,2013-09-12 18:05:00,
2013-09-12 14:15:00,74.7,3.1,29.84,SW,221,8.0,10.0,6,0.00,,,0.00,512,Wunderground v.1.15,2013-09-12 18:15:00,
2013-09-12 14:20:00,74.6,-0.9,29.83,SW,233,8.0,8.0,5,0.00,,,0.00,408,Wunderground v.1.15,2013-09-12 18:20:00,
2013-09-12 14:30:00,74.3,-32.6,29.83,SW,221,8.0,8.0,1,0.00,,,0.00,287,Wunderground v.1.15,2013-09-12 18:30:00,
2013-09-12 14:35:00,74.4,-99.9,29.83,West,275,7.0,8.0,0,0.00,,,0.00,200,Wunderground v.1.15,2013-09-12 18:35:00,
2013-09-12 14:45:00,74.5,-99.9,29.83,WSW,252,7.0,8.0,0,0.00,,,0.00,200,Wunderground v.1.15,2013-09-12 18:45:00,
2013-09-12 14:50:00,74.5,-99.9,29.82,South,190,7.0,9.0,0,0.00,,,0.00,364,Wunderground v.1.15,2013-09-12 18:50:00,
2013-09-12 15:00:00,74.9,-99.9,29.82,South,190,8.0,8.0,0,0.00,,,0.00,376,Wunderground v.1.15,2013-09-12 19:00:00,
2013-09-12 15:10:00,75.0,-32.2,29.81,SW,220,7.0,8.0,1,0.00,,,0.00,308,Wunderground v.1.15,2013-09-12 19:10:00,
2013-09-12 15:15:00,75.0,-11.2,29.81,SSW,207,7.0,11.0,3,0.00,,,0.00,309,Wunderground v.1.15,2013-09-12 19:15:00,
2013-09-12 15:25:00,74.7,-11.4,29.80,SW,219,8.0,12.0,3,0.00,,,0.00,265,Wunderground v.1.15,2013-09-12 19:25:00,
2013-09-12 15:35:00,74.6,-32.4,29.80,South,191,7.0,8.0,1,0.00,,,0.00,186,Wunderground v.1.15,2013-09-12 19:35:00,
2013-09-12 15:40:00,74.3,-19.7,29.79,SSW,206,7.0,10.0,2,0.00,,,0.00,213,Wunderground v.1.15,2013-09-12 19:40:00,
2013-09-12 15:50:00,74.0,-99.9,29.78,SSW,210,8.0,11.0,0,0.00,,,0.00,220,Wunderground v.1.15,2013-09-12 19:50:00,
2013-09-12 15:55:00,74.0,-99.9,29.77,SSW,192,9.0,14.0,0,0.00,,,0.00,301,Wunderground v.1.15,2013-09-12 19:55:00,
2013-09-12 16:05:00,74.1,-99.9,29.77,South,191,13.0,13.0,0,0.00,,,0.00,237,Wunderground v.1.15,2013-09-12 20:05:00,
2013-09-12 16:10:00,74.1,-99.9,29.76,South,189,13.0,13.0,0,0.00,,,0.00,299,Wunderground v.1.15,2013-09-12 20:10:00,
2013-09-12 16:20:00,73.9,-99.9,29.76,SSW,199,14.0,14.0,0,0.00,,,0.00,192,Wunderground v.1.15,2013-09-12 20:20:00,
2013-09-12 16:25:00,73.7,-99.9,29.77,SW,225,12.0,15.0,0,0.00,,,0.00,65,Wunderground v.1.15,2013-09-12 20:25:00,
2013-09-12 16:35:00,73.2,-99.9,29.76,WSW,249,9.0,11.0,0,0.00,,,0.00,83,Wunderground v.1.15,2013-09-12 20:35:00,
2013-09-12 16:45:00,72.8,-99.9,29.76,SW,222,11.0,12.0,0,0.00,,,0.00,77,Wunderground v.1.15,2013-09-12 20:45:00,
2013-09-12 16:55:00,72.5,-99.9,29.76,SW,229,10.0,14.0,0,0.00,,,0.00,65,Wunderground v.1.15,2013-09-12 20:55:00,
2013-09-12 17:05:00,72.4,-99.9,29.76,SSW,205,9.0,10.0,0,0.00,,,0.00,53,Wunderground v.1.15,2013-09-12 21:05:00,
2013-09-12 17:15:00,72.3,-99.9,29.75,SW,221,8.0,8.0,0,0.00,,,0.00,49,Wunderground v.1.15,2013-09-12 21:15:00,
2013-09-12 17:20:00,72.2,-99.9,29.74,SSW,194,9.0,9.0,0,0.00,,,0.00,53,Wunderground v.1.15,2013-09-12 21:20:00,
2013-09-12 17:30:00,72.3,-99.9,29.74,SSW,204,10.0,12.0,0,0.00,,,0.00,62,Wunderground v.1.15,2013-09-12 21:30:00,
2013-09-12 17:35:00,72.2,-99.9,29.73,SSW,211,11.0,12.0,0,0.00,,,0.00,51,Wunderground v.1.15,2013-09-12 21:35:00,
2013-09-12 17:45:00,72.1,-99.9,29.73,SSW,209,9.0,11.0,0,0.00,,,0.00,51,Wunderground v.1.15,2013-09-12 21:45:00,
2013-09-12 17:55:00,72.1,-99.9,29.73,SW,228,10.0,13.0,0,0.00,,,0.00,53,Wunderground v.1.15,2013-09-12 21:55:00,
2013-09-12 18:05:00,72.1,-99.9,29.73,SSW,205,9.0,10.0,0,0.00,,,0.00,65,Wunderground v.1.15,2013-09-12 22:05:00,
2013-09-12 18:15:00,72.1,-99.9,29.74,SSW,196,9.0,9.0,0,0.00,,,0.00,42,Wunderground v.1.15,2013-09-12 22:15:00,
2013-09-12 18:20:00,72.1,-99.9,29.74,SW,223,9.0,10.0,0,0.00,,,0.00,35,Wunderground v.1.15,2013-09-12 22:20:00,
2013-09-12 18:25:00,72.0,-99.9,29.74,SW,230,9.0,10.0,0,0.00,,,0.00,37,Wunderground v.1.15,2013-09-12 22:25:00,
2013-09-12 18:35:00,71.9,-99.9,29.73,SW,226,8.0,10.0,0,0.00,,,0.00,30,Wunderground v.1.15,2013-09-12 22:35:00,
2013-09-12 18:45:00,71.8,-99.9,29.73,SW,219,7.0,8.0,0,0.00,,,0.00,18,Wunderground v.1.15,2013-09-12 22:45:00,
2013-09-12 18:55:00,71.6,-99.9,29.73,SSW,209,7.0,10.0,0,0.00,,,0.00,0,Wunderground v.1.15,2013-09-12 22:55:00,
2013-09-12 19:00:00,71.5,-99.9,29.73,SSW,194,7.0,7.0,0,0.00,,,0.00,0,Wunderground v.1.15,2013-09-12 23:00:00,
2013-09-12 19:10:00,71.5,-99.9,29.72,SSW,210,7.0,7.0,0,0.00,,,0.00,0,Wunderground v.1.15,2013-09-12 23:10:00,
2013-09-12 19:20:00,71.5,-99.9,29.72,WSW,242,7.0,7.0,0,0.00,,,0.00,0,Wunderground v.1.15,2013-09-12 23:20:00,
2013-09-12 19:30:00,71.6,-99.9,29.73,SSW,207,7.0,7.0,0,0.00,,,0.00,0,Wunderground v.1.15,2013-09-12 23:30:00,
2013-09-12 19:35:00,71.6,-99.9,29.73,WSW,245,7.0,8.0,0,0.00,,,0.00,0,Wunderground v.1.15,2013-09-12 23:35:00,
2013-09-12 19:40:00,71.6,-99.9,29.73,SW,228,7.0,7.0,0,0.00,,,0.00,0,Wunderground v.1.15,2013-09-12 23:40:00,
2013-09-12 19:45:00,71.5,-99.9,29.73,SW,226,7.0,7.0,0,0.00,,,0.00,0,Wunderground v.1.15,2013-09-12 23:45:00,
2013-09-12 19:55:00,71.4,-99.9,29.73,SSW,210,5.0,6.0,0,0.00,,,0.00,0,Wunderground v.1.15,2013-09-12 23:55:00,
2013-09-12 20:05:00,71.5,-99.9,29.73,WSW,244,6.0,6.0,0,0.00,,,0.00,0,Wunderground v.1.15,2013-09-13 00:05:00,
2013-09-12 20:15:00,71.6,-99.9,29.73,SW,218,8.0,13.0,0,0.00,,,0.00,0,Wunderground v.1.15,2013-09-13 00:15:00,
2013-09-12 20:20:00,71.6,-99.9,29.73,SW,230,9.0,9.0,0,0.00,,,0.00,0,Wunderground v.1.15,2013-09-13 00:20:00,
2013-09-12 20:25:00,71.5,-99.9,29.72,WSW,243,7.0,9.0,0,0.00,,,0.00,0,Wunderground v.1.15,2013-09-13 00:25:00,
2013-09-12 20:35:00,71.5,-99.9,29.72,SSW,203,6.0,8.0,0,0.00,,,0.00,0,Wunderground v.1.15,2013-09-13 00:35:00,
2013-09-12 20:40:00,71.4,-99.9,29.72,SSW,205,7.0,7.0,0,0.00,,,0.00,0,Wunderground v.1.15,2013-09-13 00:40:00,
2013-09-12 20:50:00,71.5,-99.9,29.72,West,275,7.0,7.0,0,0.00,,,0.00,0,Wunderground v.1.15,2013-09-13 00:50:00,
2013-09-12 20:55:00,71.5,-99.9,29.72,WSW,238,7.0,7.0,0,0.00,,,0.00,0,Wunderground v.1.15,2013-09-13 00:55:00,
2013-09-12 21:05:00,71.6,-99.9,29.72,SW,232,9.0,9.0,0,0.00,,,0.00,0,Wunderground v.1.15,2013-09-13 01:05:00,
2013-09-12 21:10:00,71.6,-99.9,29.72,SW,221,10.0,12.0,0,0.00,,,0.00,0,Wunderground v.1.15,2013-09-13 01:10:00,
2013-09-12 21:15:00,71.6,-99.9,29.73,WSW,239,10.0,12.0,0,0.00,,,0.00,0,Wunderground v.1.15,2013-09-13 01:15:00,
2013-09-12 21:25:00,71.7,-99.9,29.75,WNW,288,9.0,11.0,0,0.00,,,0.00,0,Wunderground v.1.15,2013-09-13 01:25:00,
2013-09-12 21:35:00,71.0,-99.9,29.74,WNW,288,10.0,10.0,0,0.55,,,0.16,0,Wunderground v.1.15,2013-09-13 01:35:00,
2013-09-12 21:40:00,70.3,-99.9,29.75,West,267,10.0,10.0,0,0.61,,,0.22,0,Wunderground v.1.15,2013-09-13 01:40:00,
2013-09-12 21:50:00,69.7,-99.9,29.74,WSW,244,6.0,7.0,0,1.42,,,0.43,0,Wunderground v.1.15,2013-09-13 01:50:00,
2013-09-12 22:00:00,69.5,-99.9,29.73,West,259,3.0,3.0,0,0.13,,,0.53,0,Wunderground v.1.15,2013-09-13 02:00:00,
2013-09-12 22:10:00,69.5,-99.9,29.73,West,259,2.0,2.0,0,0.10,,,0.58,0,Wunderground v.1.15,2013-09-13 02:10:00,
2013-09-12 22:15:00,69.5,-99.9,29.73,West,259,2.0,2.0,0,1.36,,,0.61,0,Wunderground v.1.15,2013-09-13 02:15:00,
2013-09-12 22:25:00,69.7,-99.9,29.72,SSW,207,1.0,5.0,0,0.13,,,0.68,0,Wunderground v.1.15,2013-09-13 02:25:00,
2013-09-12 22:35:00,69.7,-99.9,29.71,SSE,157,4.0,4.0,0,0.04,,,0.68,0,Wunderground v.1.15,2013-09-13 02:35:00,
2013-09-12 22:45:00,69.7,-99.9,29.71,SSE,161,5.0,5.0,0,0.00,,,0.68,0,Wunderground v.1.15,2013-09-13 02:45:00,
2013-09-12 22:55:00,69.5,-99.9,29.70,SSE,161,2.0,3.0,0,0.00,,,0.68,0,Wunderground v.1.15,2013-09-13 02:55:00,
2013-09-12 23:00:00,69.5,-99.9,29.70,SSE,161,3.0,3.0,0,0.00,,,0.68,0,Wunderground v.1.15,2013-09-13 03:00:00,
2013-09-12 23:10:00,69.5,-99.9,29.70,SSE,161,3.0,3.0,0,0.00,,,0.68,0,Wunderground v.1.15,2013-09-13 03:10:00,
2013-09-12 23:20:00,69.7,-99.9,29.69,South,187,5.0,7.0,0,0.00,,,0.68,0,Wunderground v.1.15,2013-09-13 03:20:00,
2013-09-12 23:25:00,69.7,-99.9,29.70,SW,218,6.0,7.0,0,0.00,,,0.68,0,Wunderground v.1.15,2013-09-13 03:25:00,
2013-09-12 23:35:00,69.7,-99.9,29.69,SW,217,4.0,5.0,0,0.00,,,0.68,0,Wunderground v.1.15,2013-09-13 03:35:00,
2013-09-12 23:45:00,69.9,-99.9,29.69,SW,215,4.0,6.0,0,0.00,,,0.68,0,Wunderground v.1.15,2013-09-13 03:45:00,
2013-09-12 23:55:00,69.8,-99.9,29.68,WSW,250,4.0,5.0,0,0.00,,,0.68,0,Wunderground v.1.15,2013-09-13 03:55:00,